Location: Neuvy Saint Sepulchre
(46.5953°N, 1.8122°E)
Time: 15:54:26
(UTC+01:00)

Envisat - Pass Details

Date: 19 October 2021
Orbit: 764 x 766 km, 98.2° (Epoch: 04 December)

Event Time Altitude Azimuth Distance (km) Brightness Sun altitude
Rises 06:03:56 0° 24° (NNE) 3,244 6.7 -23.3°
Reaches altitude 10° 06:06:40 10° 38° (NE) 2,312 6.1 -22.9°
Maximum altitude 06:10:49 25° 93° (E) 1,520 5.3 -22.2°
Drops below altitude 10° 06:14:56 10° 148° (SSE) 2,296 5.8 -21.5°
Sets 06:17:37 0° 161° (SSE) 3,217 6.4 -21.0°
